Weather History for Ortonville, MN

Change the Weather History Date:

Saturday, December 7, 2013

  Actual Average (KAQP) Record (KAQP)
Temperature  
Mean Temperature -8 °F -  
Max Temperature 0 °F 29 °F 42 °F (1998)
Min Temperature -16 °F 13 °F -16 °F (2013)
Degree Days  
Heating Degree Days 73    
Moisture  
Dew Point -16 °F    
Average Humidity 69    
Maximum Humidity 77    
Minimum Humidity 55    
Precipitation  
Precipitation 0.00 in - - ()
Sea Level Pressure  
Sea Level Pressure 30.59 in    
Wind  
Wind Speed 4 mph (West)    
Max Wind Speed 10 mph    
Max Gust Speed -    
Visibility 10 miles    
Events      
Averages and records for this station are not official NWS values.
T = Trace of Precipitation, MM = Missing Value Source: NWS Daily Summary

Daily Weather History Graph

Daily Weather History Graph

Search for Another Location

Airport:

Trip Planner

Search our weather history database for the weather conditions in past years. The results will help you decide how hot, cold, wet, or windy it might be!

Date:

Astronomy

Dec. 07, 2013 Rise Set
Actual Time 7:51 AM CST 4:43 PM CST
Civil Twilight 7:17 AM CST 5:16 PM CST
Nautical Twilight 6:40 AM CST 5:53 PM CST
Astronomical Twilight 6:04 AM CST 6:29 PM CST
Moon 11:27 AM CST (12/7) 10:37 PM CST (12/7)
Length of Visible Light 9h 59m
Length of Day
8h 51m
Waxing Crescent, 29% of the Moon is Illuminated
Dec 7
Waxing Crescent
Dec 9
First Quarter
Dec 17
Full
Dec 25
Last Quarter
Jan 1
New

Hourly Weather History & Observations

Time (CST) Temp. Windchill Dew Point Humidity Pressure Visibility Wind Dir Wind Speed Gust Speed Precip Events Conditions
12:14 AM -7.6 °F -25.7 °F -14.8 °F 71% 30.64 in 10.0 mi West 10.4 mph - N/A   Clear
12:33 AM -7.6 °F -24.6 °F -14.8 °F 71% 30.63 in 10.0 mi WNW 9.2 mph - N/A   Clear
12:54 AM -7.6 °F -18.8 °F -14.8 °F 71% 30.63 in 10.0 mi WNW 4.6 mph - N/A   Clear
1:14 AM -7.6 °F -24.6 °F -14.8 °F 71% 30.64 in 10.0 mi WNW 9.2 mph - N/A   Clear
1:33 AM -9.4 °F - -16.6 °F 71% 30.64 in 10.0 mi Calm Calm - N/A   Clear
1:54 AM -11.2 °F -24.8 °F -18.4 °F 70% 30.64 in 10.0 mi West 5.8 mph - N/A   Clear
2:14 AM -11.2 °F -26.4 °F -18.4 °F 70% 30.64 in 10.0 mi West 6.9 mph - N/A   Clear
2:33 AM -11.2 °F -23.0 °F -16.6 °F 77% 30.64 in 10.0 mi NNW 4.6 mph - N/A   Clear
2:54 AM -11.2 °F - -18.4 °F 70% 30.65 in 10.0 mi Calm Calm - N/A   Unknown
3:14 AM -11.2 °F -24.8 °F -18.4 °F 70% 30.64 in 10.0 mi NW 5.8 mph - N/A   Clear
3:33 AM -9.4 °F -20.9 °F -18.4 °F 65% 30.64 in 10.0 mi WNW 4.6 mph - N/A   Clear
3:54 AM -11.2 °F -23.0 °F -18.4 °F 70% 30.64 in 10.0 mi West 4.6 mph - N/A   Clear
4:14 AM -11.2 °F -20.6 °F -18.4 °F 70% 30.64 in 10.0 mi West 3.5 mph - N/A   Clear
4:33 AM -11.2 °F - -18.4 °F 70% 30.63 in 10.0 mi Calm Calm - N/A   Clear
4:54 AM -13.0 °F - -18.4 °F 77% 30.63 in 10.0 mi Calm Calm - N/A   Clear
5:14 AM -14.8 °F - -20.2 °F 77% 30.63 in 10.0 mi Calm Calm - N/A   Clear
5:33 AM -14.8 °F - -20.2 °F 77% 30.64 in 10.0 mi Calm Calm - N/A   Clear
5:54 AM -14.8 °F - -20.2 °F 77% 30.64 in 10.0 mi Calm Calm - N/A   Unknown
6:14 AM -14.8 °F -29.1 °F -20.2 °F 77% 30.64 in 10.0 mi West 5.8 mph - N/A   Clear
6:33 AM -14.8 °F - -20.2 °F 77% 30.64 in 10.0 mi Calm Calm - N/A   Clear
6:54 AM -14.8 °F - -20.2 °F 77% 30.64 in 10.0 mi Calm Calm - N/A   Clear
7:14 AM -14.8 °F - -20.2 °F 77% 30.65 in 10.0 mi Calm Calm - N/A   Clear
7:33 AM -16.6 °F - -23.8 °F 70% 30.64 in 10.0 mi Calm Calm - N/A   Clear
7:54 AM -14.8 °F - -22.0 °F 70% 30.64 in 10.0 mi Calm Calm - N/A   Clear
8:13 AM -14.8 °F - -20.2 °F 77% 30.63 in 10.0 mi Calm Calm - N/A   Clear
8:34 AM -14.8 °F - -20.2 °F 77% 30.64 in 10.0 mi Calm Calm - N/A   Clear
8:54 AM -13.0 °F -22.7 °F -20.2 °F 70% 30.64 in 10.0 mi SW 3.5 mph - N/A   Clear
9:13 AM -13.0 °F -27.0 °F -20.2 °F 70% 30.64 in 10.0 mi WSW 5.8 mph - N/A   Unknown
9:34 AM -9.4 °F -22.7 °F -18.4 °F 65% 30.65 in 10.0 mi WSW 5.8 mph - N/A   Unknown
9:53 AM -9.4 °F -24.3 °F -18.4 °F 65% 30.65 in 10.0 mi WSW 6.9 mph - N/A   Unknown
10:13 AM -7.6 °F - -18.4 °F 59% 30.65 in 10.0 mi Calm Calm - N/A   Unknown
10:34 AM -7.6 °F -16.5 °F -18.4 °F 59% 30.65 in 10.0 mi SSW 3.5 mph - N/A   Unknown
10:53 AM -7.6 °F - -16.6 °F 65% 30.65 in 10.0 mi Calm Calm - N/A   Unknown
11:14 AM -5.8 °F - -16.6 °F 60% 30.64 in 10.0 mi Calm Calm - N/A   Clear
11:34 AM -4.0 °F -12.4 °F -14.8 °F 60% 30.64 in 10.0 mi West 3.5 mph - N/A   Clear
11:53 AM -4.0 °F -14.6 °F -14.8 °F 60% 30.64 in 10.0 mi WSW 4.6 mph - N/A   Clear
12:14 PM -2.2 °F -12.5 °F -14.8 °F 55% 30.63 in 10.0 mi SW 4.6 mph - N/A   Clear
12:34 PM -2.2 °F -16.8 °F -14.8 °F 55% 30.62 in 10.0 mi WSW 8.1 mph - N/A   Clear
12:53 PM -2.2 °F -12.5 °F -14.8 °F 55% 30.62 in 10.0 mi WSW 4.6 mph - N/A   Scattered Clouds
1:14 PM -2.2 °F -18.9 °F -14.8 °F 55% 30.62 in 10.0 mi West 10.4 mph - N/A   Mostly Cloudy
1:34 PM -2.2 °F -18.0 °F -13.0 °F 60% 30.61 in 10.0 mi WSW 9.2 mph - N/A   Mostly Cloudy
1:53 PM -2.2 °F -16.8 °F -13.0 °F 60% 30.59 in 10.0 mi West 8.1 mph - N/A   Mostly Cloudy
2:14 PM -2.2 °F -14.2 °F -13.0 °F 60% 30.59 in 10.0 mi West 5.8 mph - N/A   Unknown
2:34 PM -2.2 °F -16.8 °F -11.2 °F 66% 30.58 in 3.0 mi West 8.1 mph - N/A   Haze
2:54 PM -0.4 °F -14.7 °F -11.2 °F 60% 30.58 in 7.0 mi West 8.1 mph - N/A   Scattered Clouds
3:14 PM -0.4 °F -13.4 °F -11.2 °F 60% 30.57 in 10.0 mi WNW 6.9 mph - N/A   Unknown
3:33 PM -0.4 °F -12.0 °F -11.2 °F 60% 30.57 in 10.0 mi West 5.8 mph - N/A   Unknown
3:54 PM -0.4 °F -10.4 °F -9.4 °F 66% 30.57 in 10.0 mi WSW 4.6 mph - N/A   Unknown
4:14 PM -0.4 °F -8.3 °F -11.2 °F 60% 30.57 in 10.0 mi WSW 3.5 mph - N/A   Unknown
4:33 PM -0.4 °F -10.4 °F -11.2 °F 60% 30.56 in 10.0 mi WSW 4.6 mph - N/A   Mostly Cloudy
4:54 PM -2.2 °F - -11.2 °F 66% 30.56 in 10.0 mi Calm Calm - N/A   Overcast
5:14 PM -2.2 °F - -11.2 °F 66% 30.55 in 10.0 mi Calm Calm - N/A   Overcast
5:33 PM -2.2 °F - -11.2 °F 66% 30.55 in 10.0 mi Calm Calm - N/A   Unknown
5:54 PM -4.0 °F - -11.2 °F 71% 30.55 in 10.0 mi Calm Calm - N/A   Unknown
6:14 PM -5.8 °F - -13.0 °F 71% 30.54 in 10.0 mi Calm Calm - N/A   Clear
6:33 PM -5.8 °F - -13.0 °F 71% 30.54 in 10.0 mi Calm Calm - N/A   Scattered Clouds
6:54 PM -5.8 °F - -11.2 °F 77% 30.53 in 10.0 mi Calm Calm - N/A   Unknown
7:13 PM -5.8 °F - -13.0 °F 71% 30.52 in 10.0 mi Calm Calm - N/A   Clear
7:34 PM -7.6 °F - -14.8 °F 71% 30.51 in 10.0 mi Calm Calm - N/A   Clear
7:53 PM -7.6 °F - -13.0 °F 77% 30.52 in 10.0 mi Calm Calm - N/A   Unknown
8:14 PM -7.6 °F -16.5 °F -14.8 °F 71% 30.51 in 10.0 mi SE 3.5 mph - N/A   Unknown
8:33 PM -7.6 °F - -14.8 °F 71% 30.51 in 10.0 mi Calm Calm - N/A   Clear
8:54 PM -9.4 °F - -14.8 °F 77% 30.50 in 10.0 mi Calm Calm - N/A   Clear
9:14 PM -9.4 °F - -14.8 °F 77% 30.50 in 10.0 mi Calm Calm - N/A   Clear
9:33 PM -11.2 °F -23.0 °F -16.6 °F 77% 30.50 in 10.0 mi SSE 4.6 mph - N/A   Clear
9:54 PM -7.6 °F - -14.8 °F 71% 30.49 in 10.0 mi Calm Calm - N/A   Mostly Cloudy
10:14 PM -7.6 °F -16.5 °F -13.0 °F 77% 30.49 in 10.0 mi South 3.5 mph - N/A   Overcast
10:34 PM -7.6 °F - -13.0 °F 77% 30.48 in 10.0 mi Calm Calm - N/A   Overcast
10:53 PM -7.6 °F - -13.0 °F 77% 30.48 in 10.0 mi Calm Calm - N/A   Overcast
11:14 PM -7.6 °F - -13.0 °F 77% 30.48 in 10.0 mi Calm Calm - N/A   Overcast
11:34 PM -5.8 °F - -11.2 °F 77% 30.47 in 10.0 mi Calm Calm - N/A   Overcast
11:53 PM -5.8 °F - -11.2 °F 77% 30.46 in 10.0 mi Calm Calm - N/A   Overcast